Simultaneous Nadir Overpasses (SNOs) Predictions

Prediction of SNOs between NOAA-19 and TERRA Satellite Orbit:

Table of predicted SNOs for the next 14.0 days since TLE Epoch: 11/11/2023
Index Date (NOAA-19) Time (NOAA-19) Lat,Lon (NOAA-19) SZA (NOAA-19 ) Date (TERRA) Time (TERRA) Lat,Lon (TERRA) SZA (TERRA ) Distance(km) Time Diff (sec)
1 11/12/2023 21:15:53 -80.70, 70.41 80.08 11/12/2023 21:15:58 -80.70, 70.26 80.09 2.74 5
2 11/15/2023 01:06:17 80.68,-167.42 100.46 11/15/2023 01:05:52 80.68,-167.42 100.44 0.69 25
3 11/17/2023 04:05:37 80.66, 147.25 100.92 11/17/2023 04:06:25 80.65, 147.10 100.91 3.10 48
4 11/17/2023 04:56:29 -80.69, -44.68 78.99 11/17/2023 04:55:46 -80.70, -44.70 79.00 0.76 43
5 11/19/2023 07:55:50 -80.66, -90.39 78.59 11/19/2023 07:56:19 -80.65, -90.34 78.58 0.95 29
6 11/19/2023 08:46:52 80.69, 77.63 101.51 11/19/2023 08:45:39 80.68, 77.63 101.48 0.45 73
7 11/21/2023 11:46:12 80.66, 32.14 101.90 11/21/2023 11:46:11 80.65, 32.16 101.90 0.63 1
8 11/23/2023 14:45:31 80.64, -13.08 102.29 11/23/2023 14:46:42 80.64, -13.13 102.31 1.05 71



Historial Predications of SNOs between NOAA-19 and TERRA
